Springfield, MO

12:49 AM CST on December 12, 2019 (GMT -0600)
Springfield-Branson Regional

Weather History for KSGF - October, 2019

Change the Weather History Date:

Wednesday, October 30, 2019

  Actual Average Record
Temperature  
Mean Temperature 35 °F 53 °F  
Max Temperature 39 °F 64 °F 88 °F (1937)
Min Temperature 31 °F 42 °F 19 °F (1917)
Degree Days  
Heating Degree Days 30 12  
Month to date heating degree days 303 240  
Since 1 July heating degree days 303 295  
Cooling Degree Days 0 0  
Month to date cooling degree days 37 27  
Year to date cooling degree days 1687 1386  
Moisture  
Dew Point 34 °F    
Average Humidity 91    
Maximum Humidity 96    
Minimum Humidity 85    
Precipitation  
Precipitation 0.79 in 0.11 in 1.96 in (1967)
Month to date precipitation 8.18 3.47  
Year to date precipitation 49.87 38.19  
Snow  
Snow T in - - ()
Month to date snowfall T  
Since 1 July snowfall T  
Since 1 September snowfall T  
Snow Depth 0.00 in    
Sea Level Pressure  
Sea Level Pressure 30.07 in    
Wind  
Wind Speed 14 mph (North)    
Max Wind Speed 22 mph    
Max Gust Speed 29 mph    
Visibility 4 miles    
Events Rain , Snow    
T = Trace of Precipitation, MM = Missing Value Source: NWS Daily Summary

Daily Weather History Graph

Daily Weather History Graph

Search for Another Location

Airport or City:

Astronomy

Oct. 30, 2019 Rise Set
Actual Time 7:35 AM CDT 6:18 PM CDT
Civil Twilight 7:08 AM CDT 6:44 PM CDT
Nautical Twilight 6:38 AM CDT 7:15 PM CDT
Astronomical Twilight 6:07 AM CDT 7:45 PM CDT
Moon 10:17 AM CDT (10/30) 8:29 PM CDT (10/30)
Length of Visible Light 11h 36m
Length of Day
10h 42m
Waxing Crescent, 9% of the Moon is Illuminated
Oct 30
Waxing Crescent
Nov 4
First Quarter
Nov 12
Full
Nov 19
Last Quarter
Nov 26
New

Hourly Weather History & Observations

Time (CDT) Temp. Windchill Dew Point Humidity Pressure Visibility Wind Dir Wind Speed Gust Speed Precip Events Conditions
12:52 AM 37.0 °F 29.3 °F 35.1 °F 93% 30.13 in 6.0 mi NE 11.5 mph - 0.04 in Rain Light Rain
1:44 AM 37.0 °F 29.8 °F 34.0 °F 89% 30.13 in 2.0 mi North 10.4 mph - 0.02 in Snow Light Snow
1:52 AM 36.0 °F 27.5 °F 34.0 °F 93% 30.15 in 2.0 mi North 12.7 mph - 0.02 in Snow Light Snow
2:02 AM 36.0 °F 27.5 °F 34.0 °F 93% 30.11 in 1.8 mi NNE 12.7 mph - 0.00 in Snow Light Snow
2:30 AM 36.0 °F 27.1 °F 34.0 °F 93% 30.10 in 2.5 mi NNE 13.8 mph - 0.02 in Snow Light Snow
2:52 AM 36.0 °F 26.3 °F 34.0 °F 93% 30.12 in 5.0 mi NE 16.1 mph - 0.03 in Rain Rain
2:59 AM 36.0 °F 26.3 °F 33.1 °F 89% 30.08 in 4.0 mi ENE 16.1 mph 24.2 mph 0.02 in Rain Rain
3:52 AM 36.0 °F 26.3 °F 34.0 °F 93% 30.09 in 8.0 mi NE 16.1 mph 20.7 mph 0.09 in Rain Light Rain
4:17 AM 36.0 °F 30.3 °F 34.0 °F 93% 30.10 in 8.0 mi North 6.9 mph - 0.06 in Rain Light Rain
4:52 AM 37.0 °F 28.1 °F 34.0 °F 89% 30.09 in 4.0 mi NE 15.0 mph - 0.12 in Rain Rain
4:59 AM 37.0 °F 28.1 °F 34.0 °F 89% 30.07 in 5.0 mi NE 15.0 mph - 0.00 in Rain Light Rain
5:22 AM 37.0 °F 28.1 °F 34.0 °F 89% 30.06 in 4.0 mi NNE 15.0 mph - 0.03 in Rain Rain
5:30 AM 37.0 °F 28.1 °F 34.0 °F 89% 30.05 in 3.0 mi NE 15.0 mph - 0.05 in Rain Light Rain
5:41 AM 37.0 °F 28.9 °F 34.0 °F 89% 30.08 in 3.0 mi NNE 12.7 mph - 0.07 in Rain Heavy Rain
5:52 AM 37.0 °F 29.8 °F 34.0 °F 89% 30.10 in 4.0 mi NNE 10.4 mph - 0.10 in Rain Rain
6:08 AM 37.0 °F 28.1 °F 34.0 °F 89% 30.06 in 3.0 mi ENE 15.0 mph - 0.04 in Rain Rain
6:52 AM 37.0 °F 29.8 °F 34.0 °F 89% 30.10 in 4.0 mi NNE 10.4 mph - 0.19 in Rain Rain
7:19 AM 37.0 °F 30.4 °F 35.1 °F 93% 30.06 in 3.0 mi NNE 9.2 mph - 0.05 in Rain Heavy Rain
7:26 AM 37.0 °F 30.4 °F 35.1 °F 93% 30.06 in 2.0 mi NE 9.2 mph - 0.13 in Rain Heavy Rain
7:40 AM 37.0 °F 30.4 °F 35.1 °F 93% 30.06 in 7.0 mi NNE 9.2 mph - 0.21 in Rain Light Rain
7:52 AM 37.0 °F 31.0 °F 35.1 °F 93% 30.08 in 10.0 mi North 8.1 mph - 0.21 in   Overcast
8:52 AM 37.0 °F 29.3 °F 35.1 °F 93% 30.10 in 10.0 mi North 11.5 mph - 0.00 in   Overcast
9:52 AM 37.9 °F 30.0 °F 35.1 °F 89% 30.09 in 10.0 mi NNE 12.7 mph - N/A   Overcast
10:52 AM 39.0 °F 31.8 °F 36.0 °F 89% 30.07 in 10.0 mi NNE 11.5 mph - N/A   Overcast
11:24 AM 37.9 °F 28.9 °F 36.0 °F 93% 30.04 in 10.0 mi North 16.1 mph - N/A   Overcast
11:52 AM 37.9 °F 30.9 °F 36.0 °F 93% 30.08 in 9.0 mi NNE 10.4 mph - N/A   Overcast
12:33 PM 37.0 °F 28.9 °F 35.1 °F 93% 30.03 in 1.8 mi North 12.7 mph - N/A   Overcast
12:52 PM 37.0 °F 28.1 °F 35.1 °F 93% 30.04 in 2.5 mi NNE 15.0 mph - N/A   Overcast
1:33 PM 37.0 °F 29.3 °F 35.1 °F 93% 30.03 in 4.0 mi NNE 11.5 mph - N/A   Overcast
1:52 PM 37.0 °F 29.3 °F 35.1 °F 93% 30.06 in 6.0 mi North 11.5 mph - N/A   Overcast
2:10 PM 37.0 °F 29.3 °F 35.1 °F 93% 30.03 in 2.5 mi North 11.5 mph - 0.00 in   Overcast
2:47 PM 37.4 °F 28.9 °F 35.6 °F 93% 30.03 in 2.0 mi North 13.8 mph - 0.01 in   Overcast
2:52 PM 37.0 °F 28.5 °F 35.1 °F 93% 30.05 in 1.8 mi North 13.8 mph - 0.01 in   Overcast
3:03 PM 37.0 °F 29.3 °F 35.1 °F 93% 30.02 in 1.5 mi North 11.5 mph - 0.00 in Snow Light Snow
3:43 PM 37.0 °F 28.1 °F 35.1 °F 93% 30.02 in 2.0 mi North 15.0 mph - 0.00 in Snow Light Snow
3:52 PM 37.0 °F 29.3 °F 35.1 °F 93% 30.04 in 2.0 mi North 11.5 mph - 0.00 in Snow Light Snow
4:11 PM 37.9 °F 29.6 °F 35.1 °F 89% 30.03 in 1.8 mi North 13.8 mph - 0.01 in Snow Light Snow
4:44 PM 37.0 °F 27.7 °F 35.1 °F 93% 30.02 in 2.5 mi North 16.1 mph - 0.02 in Rain Light Rain
4:52 PM 37.0 °F 28.9 °F 35.1 °F 93% 30.05 in 3.0 mi NNW 12.7 mph - 0.02 in Snow Light Snow
5:01 PM 37.0 °F 28.1 °F 35.1 °F 93% 30.03 in 2.5 mi NNW 15.0 mph - 0.00 in   Overcast
5:09 PM 37.0 °F 28.9 °F 35.1 °F 93% 30.03 in 3.0 mi North 12.7 mph - 0.00 in   Overcast
5:18 PM 37.0 °F 28.5 °F 34.0 °F 89% 30.03 in 2.5 mi North 13.8 mph - 0.00 in Snow Light Snow
5:26 PM 37.0 °F 29.8 °F 34.0 °F 89% 30.03 in 1.5 mi North 10.4 mph - 0.00 in Snow Light Snow
5:34 PM 36.0 °F 25.6 °F 34.0 °F 93% 30.02 in 1.2 mi North 18.4 mph - 0.00 in Snow Light Snow
5:52 PM 36.0 °F 27.1 °F 34.0 °F 93% 30.05 in 1.8 mi NNW 13.8 mph - 0.01 in Snow Light Snow
6:14 PM 36.0 °F 27.1 °F 34.0 °F 93% 30.04 in 2.5 mi NNW 13.8 mph - 0.00 in   Overcast
6:24 PM 36.0 °F 27.1 °F 34.0 °F 93% 30.03 in 4.0 mi North 13.8 mph 21.9 mph 0.00 in Snow Light Snow
6:52 PM 36.0 °F 26.7 °F 33.1 °F 89% 30.07 in 3.0 mi NNW 15.0 mph - 0.00 in Snow Light Snow
7:01 PM 35.1 °F 25.5 °F 33.1 °F 92% 30.04 in 2.5 mi NNW 15.0 mph - 0.00 in Snow Light Snow
7:15 PM 35.1 °F 25.5 °F 32.0 °F 89% 30.05 in 4.0 mi North 15.0 mph - 0.00 in Snow Light Snow
7:52 PM 35.1 °F 25.2 °F 32.0 °F 89% 30.07 in 4.0 mi North 16.1 mph - 0.00 in Snow Light Snow
8:13 PM 34.0 °F 24.2 °F 32.0 °F 92% 30.07 in 2.5 mi NNW 15.0 mph - 0.00 in Snow Light Snow
8:31 PM 34.0 °F 24.6 °F 32.0 °F 92% 30.06 in 3.0 mi NNW 13.8 mph - 0.00 in Snow Light Snow
8:47 PM 33.8 °F 24.3 °F 32.0 °F 93% 30.06 in 2.0 mi North 13.8 mph - 0.00 in Snow Light Snow
8:52 PM 34.0 °F 24.2 °F 32.0 °F 92% 30.09 in 2.0 mi NNW 15.0 mph - 0.00 in Snow Light Snow
9:44 PM 33.1 °F 23.9 °F 30.9 °F 92% 30.10 in 3.0 mi NW 12.7 mph - 0.00 in Snow Light Snow
9:52 PM 33.1 °F 21.5 °F 30.9 °F 92% 30.13 in 3.0 mi NW 19.6 mph 27.6 mph 0.00 in Snow Light Snow
10:25 PM 32.0 °F 21.2 °F 30.0 °F 92% 30.11 in 2.5 mi NW 16.1 mph 23.0 mph 0.00 in Snow Light Snow
10:52 PM 32.0 °F 21.2 °F 28.9 °F 88% 30.14 in 3.0 mi NW 16.1 mph 25.3 mph 0.00 in Snow Light Snow
11:47 PM 32.0 °F 21.2 °F 28.4 °F 87% 30.12 in 4.0 mi NW 16.1 mph 23.0 mph 0.00 in Snow Light Snow
11:52 PM 30.9 °F 19.4 °F 28.0 °F 89% 30.15 in 4.0 mi NW 17.3 mph 27.6 mph 0.00 in Snow Light Snow